Regional Weather Roundup
Issued by NWS Sioux Falls, SD

Home | Current Version | Previous Version | Graphics & Text | Print | Product List | Glossary Off
Versions: 1 2 3 4 5 6 7 8 9 10 11 12 13 14 15 16 17 18 19 20 21 22 23 24 25 26 27 28 29 30 31 32 33 34 35 36 37 38 39 40 41 42 43 44 45 46 47 48 49 50

936
ASUS43 KFSD 271802
RWRFSD

WEATHER ROUNDUP FOR SE SOUTH DAKOTA/SW MINNESOTA/NW IOWA
NATIONAL WEATHER SERVICE SIOUX FALLS SD
100 PM CDT WED JUL 27 2016

NOTE: "FAIR" INDICATES FEW OR NO CLOUDS BELOW 12,000 FEET WITH NO
SIGNIFICANT WEATHER AND OR OBSTRUCTIONS TO VISIBILITY.


SDZ038>040-050-052>070-271900-
SOUTHEAST SOUTH DAKOTA

CITY           SKY/WX    TMP DP  RH WIND       PRES   REMARKS
BROOKINGS      MOSUNNY   76  64  66 N9        30.03S
CHAMBERLAIN    PTSUNNY   82  67  60 NE7       30.05R
6HR MIN TEMP:  65; 6HR MAX TEMP:  85;

HURON          SUNNY     79  65  62 N14       30.03F
6HR MIN TEMP:  64; 6HR MAX TEMP:  80;

MADISON        MOCLDY    75  68  78 N9        30.05S
MITCHELL       PTSUNNY   81  66  60 N14       30.02F
6HR MIN TEMP:  68; 6HR MAX TEMP:  82;

SIOUX FALLS    PTSUNNY   81  67  62 N12       30.00F
6HR MIN TEMP:  72; 6HR MAX TEMP:  82;

WINNER         FAIR      86  67  52 NE13      30.04F
YANKTON        SUNNY     82  61  47 NW8       29.99F
$$

MNZ071-072-080-081-089-090-097-098-271900-
SOUTHWEST MINNESOTA

CITY           SKY/WX    TMP DP  RH WIND       PRES   REMARKS
FAIRMONT       CLOUDY    77  68  73 SW9       29.99R
JACKSON        CLOUDY    81  66  61 W10       30.00S
LUVERNE        PTSUNNY   79  66  65 N5        30.02S
MARSHALL       PTSUNNY   77  67  71 N13       30.00F
6HR MIN TEMP:  68; 6HR MAX TEMP:  77;

MONTEVIDEO     MOSUNNY   79  66  65 N10       30.01F
PIPESTONE      PTSUNNY   77  64  65 N6        30.04S
REDWOOD FALLS  MOSUNNY   79  64  60 NW7       29.98S
TRACY          PTSUNNY   78  68  72 NW8       30.01F
WINDOM         CLOUDY    75  68  78 NW8       30.01R
WORTHINGTON    PTSUNNY   78  69  73 NW13      30.02S
$$

IAZ001>003-012>014-020>022-031-032-NEZ013-014-SDZ071-271900-
NORTHWEST IOWA

CITY           SKY/WX    TMP DP  RH WIND       PRES   REMARKS
CHEROKEE       MOSUNNY   82  72  72 SW9       30.00S
DENISON        CLOUDY    70  68  94 S10       29.99F
ESTHERVILLE    CLOUDY    80  71  74 SW9       29.99S
LE MARS        SUNNY     84  68  58 VRB7      30.00F
SHELDON        MOSUNNY   82  72  69 W10G16    29.99F
SIOUX CITY     SUNNY     86  68  54 NE5       29.99F
6HR MIN TEMP:  71; 6HR MAX TEMP:  86; 6HR PCP: TRACE;

SPENCER        SUNNY     83  68  60 W14       29.99S
6HR MIN TEMP:  67; 6HR MAX TEMP:  83; 6HR PCP: TRACE;

STORM LAKE     CLOUDY    79  72  78 SW8       30.02F
$$

ABBREVIATIONS USED IN REMARKS
   TC - TEMPERATURE IN CELSIUS
  WCI - WIND CHILL INDEX
   HX - HEAT INDEX
  VSB - VISIBILITY





USA.gov is the U.S. government's official web portal to all federal, state and local government web resources and services.